Preview of NWS' New Version of Forecast
This preview is not operational and should not be used for support decisions.

Regional Weather Roundup (RWR)

Issued by National Weather Service (NWS)

                            
000
ASUS46 KSEW 191210
RWRWA 

WASHINGTON REGIONAL WEATHER ROUNDUP
NATIONAL WEATHER SERVICE SEATTLE WA
400 AM PST TUE FEB 19 2019

NOTE:"FAIR" INDICATES FEW OR NO CLOUDS BELOW 12,000 FEET WITH NO 
SIGNIFICANT WEATHER AND/OR OBSTRUCTIONS TO VISIBILITY.

WAZ507-509-555>559-191300-
SEATTLE, TACOMA, EVERETT, AND VICINITY
  
CITY           SKY/WX    TMP DP  RH WIND       PRES   REMARKS
EVERETT        LGT RAIN  36  35  96 VRB3      30.26S                  
6HR MIN TEMP:  36; 6HR MAX TEMP:  37; 6HR PCP:  0.02;                

BOEING FIELD   CLOUDY    39  35  86 VRB3      30.28F                  
6HR MIN TEMP:  39; 6HR MAX TEMP:  40;                                

RENTON         CLOUDY    39  35  86 CALM      30.28F                  
6HR MIN TEMP:  38; 6HR MAX TEMP:  39;                                

SEATAC AIRPORT CLOUDY    39  35  86 S8        30.26F                  
6HR MIN TEMP:  39; 6HR MAX TEMP:  41;                                

JBLM-MCCHORD   CLOUDY    37  37 100 S7        30.28F                  
6HR MIN TEMP:  34; 6HR MAX TEMP:  38;                                

PUYALLUP       CLOUDY    37  36  93 CALM      30.27F                  
BREMERTON      CLOUDY    34  33  96 CALM      30.27F                  
6HR MIN TEMP:  33; 6HR MAX TEMP:  35;                                

JBLM-FT LEWIS  CLOUDY    38  38 100 S8        30.27F                  
6HR MIN TEMP:  35; 6HR MAX TEMP:  38;                                

TACOMA NARROWS CLOUDY    39  35  86 S7        30.26F                  
6HR MIN TEMP:  38; 6HR MAX TEMP:  40;                                

$$
 
WAZ001-503-506-510-514-515-191300-
NORTH INTERIOR
  
CITY           SKY/WX    TMP DP  RH WIND       PRES   REMARKS
BELLINGHAM     CLOUDY    32  25  75 CALM      30.26F                  
6HR MIN TEMP:  31; 6HR MAX TEMP:  32; 6HR PCP: TRACE;                

FRIDAY HARBOR  CLOUDY    36  34  92 CALM      30.27F                  
6HR MIN TEMP:  36; 6HR MAX TEMP:  38; 6HR PCP: TRACE;                

EASTSOUND      CLOUDY    39  36  87 S3        30.25F                  
PORT ANGELES   CLOUDY    37  28  70 SW9       30.26F                  
6HR MIN TEMP:  32; 6HR MAX TEMP:  37;                                

EDIZ HOOK      CLOUDY    39  34  82 SW3       30.27F                  
6HR MIN TEMP:  37; 6HR MAX TEMP:  40;                                

PORT TOWNSEND  CLOUDY    34  34 100 CALM      30.27S FOG              
NAS WHIDBEY    LGT RAIN  38  34  85 E8        30.31F                  
6HR MIN TEMP:  38; 6HR MAX TEMP:  41; 6HR PCP:  0.07;                

ARLINGTON      CLOUDY    33  31  92 CALM      30.28F                  
6HR MIN TEMP:  33; 6HR MAX TEMP:  34; 6HR PCP: TRACE;                

BURLINGTON     CLOUDY    36  30  80 CALM      30.28F                  
$$
 
WAZ020-022-039-040-504-511-512-191300-
SOUTHWEST INTERIOR
  
CITY           SKY/WX    TMP DP  RH WIND       PRES   REMARKS
SHELTON        CLOUDY    35  33  92 CALM      30.25F                  
6HR MIN TEMP:  30; 6HR MAX TEMP:  36;                                

OLYMPIA        LGT RAIN  37  35  92 S6        30.29F                  
6HR MIN TEMP:  37; 6HR MAX TEMP:  39; 6HR PCP: TRACE;                

CHEHALIS       CLOUDY    37  37 100 SW5       30.30S                  
KELSO          CLOUDY    37  36  96 S6        30.33F                  
6HR MIN TEMP:  37; 6HR MAX TEMP:  39; 6HR PCP: TRACE;                

VANCOUVER      CLOUDY    37  36  96 CALM      30.32F                  
6HR MIN TEMP:  37; 6HR MAX TEMP:  40; 6HR PCP: TRACE;                

SCAPPOOSE, OR  CLOUDY    38  36  92 CALM      30.32F FOG              
6HR MIN TEMP:  38; 6HR MAX TEMP:  40; 6HR PCP: TRACE;                

PORTLAND, OR   CLOUDY    39  36  89 E3        30.33F                  
6HR MIN TEMP:  38; 6HR MAX TEMP:  40; 6HR PCP:  0.01;                

$$
 
WAZ021-516-517-191300-
WASHINGTON COAST
  
CITY           SKY/WX    TMP DP  RH WIND       PRES   REMARKS
FORKS          MOCLDY    36  31  82 E5        30.26F                  
6HR MIN TEMP:  36; 6HR MAX TEMP:  37;                                

HOQUIAM        CLOUDY    39  39 100 CALM      30.28F                  
6HR MIN TEMP:  37; 6HR MAX TEMP:  41; 6HR PCP:  0.01;                

ASTORIA, OR    CLOUDY    38  37  97 SE3       30.31F                  
6HR MIN TEMP:  38; 6HR MAX TEMP:  39; 6HR PCP: TRACE;                

$$
 
WAZ019-023-024-040-567>569-191300-
CASCADE MOUNTAINS AND COLUMBIA GORGE
  
CITY           SKY/WX    TMP DP  RH WIND       PRES   REMARKS
STAMPEDE PASS  CLOUDY    25  22  88 W10G20    30.06F WCI  15          
6HR MIN TEMP:  25; 6HR MAX TEMP:  26; 6HR PCP:  0.01;                

TROUTDALE, OR  LGT RAIN  39  36  89 CALM      30.33F                  
6HR MIN TEMP:  38; 6HR MAX TEMP:  40; 6HR PCP:  0.01;                

HOOD RIVER, OR CLOUDY    37  32  81 NW10G17   30.24F                  
THE DALLES, OR CLOUDY    36  28  73 W7        30.24F                  
6HR MIN TEMP:  27; 6HR MAX TEMP:  38;                                

$$

WAZ026-027-041>044-520-521-191300-
EAST SLOPES
  
CITY           SKY/WX    TMP DP  RH WIND       PRES   REMARKS
OMAK           PTCLDY    10   7  87 CALM      30.24F                  
6HR MIN TEMP:   9; 6HR MAX TEMP:  15;                                

WENATCHEE      MOCLDY    14   9  80 E6        30.21F                  
6HR MIN TEMP:  12; 6HR MAX TEMP:  19;                                

ELLENSBURG     MOCLDY    17  13  84 E3        30.13F                  
6HR MIN TEMP:  11; 6HR MAX TEMP:  19;                                

YAKIMA         PTCLDY    10   6  84 W5        30.21F                  
6HR MIN TEMP:   9; 6HR MAX TEMP:  16;                                

SUNNYSIDE ARPT MOSUNNY   12  10  92 CALM      30.24                   
6HR MIN TEMP:  11; 6HR MAX TEMP:  18;                                

YAKIMA TC      FAIR      13  10  89 CALM      30.17F                  
6HR MIN TEMP:  13; 6HR MAX TEMP:  19;                                

$$

WAZ028-034-035-191300-
COLUMBIA BASIN
  
CITY           SKY/WX    TMP DP  RH WIND       PRES   REMARKS
EPHRATA        MOCLDY    12   7  80 N10       30.21F WCI  -1          
6HR MIN TEMP:  10; 6HR MAX TEMP:  18;                                

MOSES LAKE     PTCLDY   N/A N/A N/A N8        30.22F                  
PASCO          CLOUDY    16  13  88 CALM      30.27F                  
6HR MIN TEMP:  15; 6HR MAX TEMP:  21;                                

RICHLAND ARPT  PTSUNNY   18  16  93 W5        30.27                   
6HR MIN TEMP:  16; 6HR MAX TEMP:  21;                                

HERMISTON, OR  CLEAR     23  20  88 S5        30.22F                  
6HR MIN TEMP:  22; 6HR MAX TEMP:  28;                                

$$

WAZ036>038-191300-
NORTHEAST WASHINGTON
  
CITY           SKY/WX    TMP DP  RH WIND       PRES   REMARKS
SPOKANE GEIGER CLOUDY    10   5  80 CALM      30.14F                  
6HR MIN TEMP:   9; 6HR MAX TEMP:  14;                                

SPOKANE FELTS  MOCLDY    12   9  87 CALM      30.19F                  
6HR MIN TEMP:  12; 6HR MAX TEMP:  15;                                

FAIRCHILD AFB  CLOUDY     9   8  94 CALM      30.12F                  
6HR MIN TEMP:   6; 6HR MAX TEMP:  11;                                

COEURDALENE,ID CLOUDY    10   8  92 NE3       30.15F                  
6HR MIN TEMP:   5; 6HR MAX TEMP:  14; 6HR PCP: TRACE;                

DEER PARK      CLOUDY     6   2  83 CALM      30.16F                  
6HR MIN TEMP:   1; 6HR MAX TEMP:   8;                                

$$

WAZ029>033-191300-
SOUTHEAST WASHINGTON
  
CITY           SKY/WX    TMP DP  RH WIND       PRES   REMARKS
PULLMAN        CLOUDY    20  15  81 E10       30.15F WCI   9          
6HR MIN TEMP:  13; 6HR MAX TEMP:  20;                                

LEWISTON, ID   CLOUDY    26  18  71 E3        30.21F                  
6HR MIN TEMP:  24; 6HR MAX TEMP:  26;                                

WALLA WALLA    CLOUDY    32  25  75 S6        30.20F                  
6HR MIN TEMP:  27; 6HR MAX TEMP:  32;                                

PENDLETON, OR  CLOUDY    32  25  75 CALM      30.19S                  
6HR MIN TEMP:  28; 6HR MAX TEMP:  32;                                

$$